Time,TemperatureF,DewpointF,PressureIn,WindDirection,WindDirectionDegrees,WindSpeedMPH,WindSpeedGustMPH,Humidity,HourlyPrecipIn,Conditions,Clouds,dailyrainin,SoftwareType,DateUTC
2013-02-26 00:03:00,53.3,45.9,29.75,SE,129,4.0,10.0,76,0.00,,,0.00,Wunderground v.1.15,2013-02-26 05:03:00,
2013-02-26 00:13:00,53.3,45.9,29.74,South,181,4.0,6.0,76,0.00,,,0.00,Wunderground v.1.15,2013-02-26 05:13:00,
2013-02-26 00:18:00,53.4,46.0,29.74,SSE,154,4.0,4.0,76,0.00,,,0.00,Wunderground v.1.15,2013-02-26 05:18:00,
2013-02-26 00:23:00,53.4,46.0,29.73,SSE,147,4.0,6.0,76,0.00,,,0.00,Wunderground v.1.15,2013-02-26 05:23:00,
2013-02-26 00:32:00,53.4,46.0,29.73,SSW,198,4.0,6.0,76,0.00,,,0.00,Wunderground v.1.15,2013-02-26 05:32:00,
2013-02-26 00:37:00,53.4,46.0,29.73,SSW,201,4.0,6.0,76,0.00,,,0.00,Wunderground v.1.15,2013-02-26 05:37:00,
2013-02-26 00:42:00,53.4,46.0,29.73,West,262,4.0,6.0,76,0.00,,,0.00,Wunderground v.1.15,2013-02-26 05:42:00,
2013-02-26 00:48:00,53.5,46.1,29.74,SSE,162,5.0,6.0,76,0.00,,,0.00,Wunderground v.1.15,2013-02-26 05:48:00,
2013-02-26 00:53:00,53.4,46.4,29.74,SSW,208,5.0,6.0,77,0.00,,,0.00,Wunderground v.1.15,2013-02-26 05:53:00,
2013-02-26 00:58:00,53.1,46.4,29.73,SW,222,4.0,6.0,78,0.00,,,0.00,Wunderground v.1.15,2013-02-26 05:58:00,
2013-02-26 01:03:00,52.9,46.6,29.74,SW,231,5.0,9.0,79,0.00,,,0.00,Wunderground v.1.15,2013-02-26 06:03:00,
2013-02-26 01:08:00,52.4,47.1,29.73,SSE,159,4.0,4.0,82,0.00,,,0.01,Wunderground v.1.15,2013-02-26 06:08:00,
2013-02-26 01:13:00,51.9,47.2,29.73,SSE,156,3.0,6.0,84,0.08,,,0.02,Wunderground v.1.15,2013-02-26 06:13:00,
2013-02-26 01:23:00,50.9,46.9,29.73,SE,136,2.0,6.0,86,0.24,,,0.09,Wunderground v.1.15,2013-02-26 06:23:00,
2013-02-26 01:28:00,50.6,47.2,29.72,SE,146,2.0,6.0,88,0.19,,,0.10,Wunderground v.1.15,2013-02-26 06:28:00,
2013-02-26 01:33:00,50.4,47.3,29.72,South,172,2.0,6.0,89,0.18,,,0.12,Wunderground v.1.15,2013-02-26 06:33:00,
2013-02-26 01:38:00,50.3,47.5,29.72,East,82,2.0,2.0,90,0.09,,,0.12,Wunderground v.1.15,2013-02-26 06:38:00,
2013-02-26 01:43:00,50.1,47.6,29.72,SW,219,2.0,6.0,91,0.06,,,0.13,Wunderground v.1.15,2013-02-26 06:43:00,
2013-02-26 01:53:00,50.0,47.5,29.72,SSW,213,1.0,6.0,91,0.33,,,0.17,Wunderground v.1.15,2013-02-26 06:53:00,
2013-02-26 01:58:00,49.9,47.7,29.72,WSW,245,1.0,1.0,92,0.17,,,0.18,Wunderground v.1.15,2013-02-26 06:58:00,
2013-02-26 02:03:00,49.8,47.6,29.71,SSW,212,1.0,6.0,92,0.12,,,0.19,Wunderground v.1.15,2013-02-26 07:03:00,
2013-02-26 02:08:00,49.7,47.5,29.70,South,181,1.0,6.0,92,0.13,,,0.20,Wunderground v.1.15,2013-02-26 07:08:00,
2013-02-26 02:13:00,49.7,47.8,29.69,SW,221,1.0,6.0,93,0.13,,,0.21,Wunderground v.1.15,2013-02-26 07:13:00,
2013-02-26 02:18:00,49.7,47.8,29.69,SSE,165,2.0,6.0,93,0.12,,,0.22,Wunderground v.1.15,2013-02-26 07:18:00,
2013-02-26 02:27:00,49.8,47.6,29.67,South,176,2.0,6.0,92,0.09,,,0.24,Wunderground v.1.15,2013-02-26 07:27:00,
2013-02-26 02:32:00,49.8,47.6,29.67,SSE,149,2.0,6.0,92,0.08,,,0.24,Wunderground v.1.15,2013-02-26 07:32:00,
2013-02-26 02:37:00,49.7,47.5,29.67,SSE,159,2.0,2.0,92,0.08,,,0.25,Wunderground v.1.15,2013-02-26 07:37:00,
2013-02-26 02:42:00,49.7,47.5,29.67,SSW,203,1.0,6.0,92,0.10,,,0.26,Wunderground v.1.15,2013-02-26 07:42:00,
2013-02-26 02:47:00,49.6,47.7,29.67,South,172,1.0,6.0,93,0.11,,,0.27,Wunderground v.1.15,2013-02-26 07:47:00,
2013-02-26 02:57:00,49.4,47.2,29.66,SSE,160,2.0,6.0,92,0.15,,,0.29,Wunderground v.1.15,2013-02-26 07:57:00,
2013-02-26 03:02:00,49.3,47.1,29.66,SE,143,2.0,6.0,92,0.12,,,0.30,Wunderground v.1.15,2013-02-26 08:02:00,
2013-02-26 03:07:00,49.3,47.1,29.65,SSW,194,3.0,3.0,92,0.09,,,0.31,Wunderground v.1.15,2013-02-26 08:07:00,
2013-02-26 03:12:00,49.3,47.1,29.65,SSE,158,3.0,6.0,92,0.11,,,0.32,Wunderground v.1.15,2013-02-26 08:12:00,
2013-02-26 03:17:00,49.4,47.2,29.65,SE,144,3.0,6.0,92,0.10,,,0.33,Wunderground v.1.15,2013-02-26 08:17:00,
2013-02-26 03:22:00,49.3,47.1,29.64,ESE,117,3.0,6.0,92,0.27,,,0.35,Wunderground v.1.15,2013-02-26 08:22:00,
2013-02-26 03:32:00,49.5,47.6,29.64,SSE,149,3.0,6.0,93,0.21,,,0.38,Wunderground v.1.15,2013-02-26 08:32:00,
2013-02-26 03:37:00,49.5,47.6,29.63,SSE,165,3.0,3.0,93,0.25,,,0.40,Wunderground v.1.15,2013-02-26 08:37:00,
2013-02-26 03:42:00,49.5,47.6,29.63,SSW,211,3.0,6.0,93,0.17,,,0.41,Wunderground v.1.15,2013-02-26 08:42:00,
2013-02-26 03:47:00,49.6,47.7,29.63,SW,217,2.0,6.0,93,0.12,,,0.42,Wunderground v.1.15,2013-02-26 08:47:00,
2013-02-26 03:52:00,49.7,47.8,29.63,ESE,105,2.0,6.0,93,0.06,,,0.42,Wunderground v.1.15,2013-02-26 08:52:00,
2013-02-26 03:58:00,49.7,47.8,29.61,South,172,2.0,2.0,93,0.05,,,0.43,Wunderground v.1.15,2013-02-26 08:58:00,
2013-02-26 04:03:00,49.8,47.6,29.60,SSE,156,3.0,3.0,92,0.07,,,0.43,Wunderground v.1.15,2013-02-26 09:03:00,
2013-02-26 04:08:00,49.9,47.7,29.58,SSE,150,3.0,6.0,92,0.07,,,0.44,Wunderground v.1.15,2013-02-26 09:08:00,
2013-02-26 04:13:00,50.1,47.9,29.58,East,101,4.0,7.0,92,0.11,,,0.45,Wunderground v.1.15,2013-02-26 09:13:00,
2013-02-26 04:18:00,50.3,48.1,29.58,SE,144,5.0,5.0,92,0.10,,,0.46,Wunderground v.1.15,2013-02-26 09:18:00,
2013-02-26 04:23:00,50.4,47.9,29.57,SSE,157,4.0,6.0,91,0.07,,,0.46,Wunderground v.1.15,2013-02-26 09:23:00,
2013-02-26 04:33:00,50.4,47.9,29.57,East,90,2.0,6.0,91,0.00,,,0.46,Wunderground v.1.15,2013-02-26 09:33:00,
2013-02-26 04:38:00,50.4,47.9,29.56,SSE,148,2.0,6.0,91,0.00,,,0.46,Wunderground v.1.15,2013-02-26 09:38:00,
2013-02-26 04:43:00,50.4,48.2,29.54,SE,124,2.0,6.0,92,0.00,,,0.46,Wunderground v.1.15,2013-02-26 09:43:00,
2013-02-26 04:48:00,50.4,48.2,29.54,ESE,102,2.0,2.0,92,0.00,,,0.46,Wunderground v.1.15,2013-02-26 09:48:00,
2013-02-26 04:53:00,50.5,48.3,29.55,SSE,162,2.0,6.0,92,0.00,,,0.47,Wunderground v.1.15,2013-02-26 09:53:00,
2013-02-26 04:58:00,50.6,48.1,29.56,SW,229,2.0,6.0,91,0.00,,,0.47,Wunderground v.1.15,2013-02-26 09:58:00,
2013-02-26 05:08:00,50.5,48.0,29.58,SW,231,2.0,6.0,91,0.05,,,0.48,Wunderground v.1.15,2013-02-26 10:08:00,
2013-02-26 05:13:00,50.5,48.0,29.59,SSW,198,5.0,6.0,91,0.05,,,0.48,Wunderground v.1.15,2013-02-26 10:13:00,
2013-02-26 05:18:00,50.4,47.9,29.58,SW,217,6.0,6.0,91,0.15,,,0.50,Wunderground v.1.15,2013-02-26 10:18:00,
2013-02-26 05:23:00,50.3,47.8,29.57,SSW,198,4.0,7.0,91,0.21,,,0.51,Wunderground v.1.15,2013-02-26 10:23:00,
2013-02-26 05:28:00,50.2,47.7,29.57,SSW,205,3.0,9.0,91,0.17,,,0.53,Wunderground v.1.15,2013-02-26 10:28:00,
2013-02-26 05:37:00,50.3,47.8,29.56,SW,216,4.0,4.0,91,0.10,,,0.55,Wunderground v.1.15,2013-02-26 10:37:00,
2013-02-26 05:42:00,50.3,47.8,29.56,SSE,152,4.0,6.0,91,0.31,,,0.57,Wunderground v.1.15,2013-02-26 10:42:00,
2013-02-26 05:47:00,50.1,47.9,29.56,SSE,159,3.0,6.0,92,0.32,,,0.60,Wunderground v.1.15,2013-02-26 10:47:00,
2013-02-26 05:52:00,50.0,47.8,29.56,SSW,213,2.0,6.0,92,0.22,,,0.61,Wunderground v.1.15,2013-02-26 10:52:00,
2013-02-26 05:58:00,49.9,48.0,29.56,SE,124,3.0,3.0,93,0.13,,,0.62,Wunderground v.1.15,2013-02-26 10:58:00,
2013-02-26 06:07:00,49.7,47.8,29.56,South,186,2.0,2.0,93,0.07,,,0.63,Wunderground v.1.15,2013-02-26 11:07:00,
2013-02-26 06:12:00,49.7,47.8,29.55,South,169,2.0,2.0,93,0.06,,,0.63,Wunderground v.1.15,2013-02-26 11:12:00,
2013-02-26 06:17:00,49.6,47.9,29.55,SSW,210,1.0,2.0,94,0.04,,,0.63,Wunderground v.1.15,2013-02-26 11:17:00,
2013-02-26 06:22:00,49.7,48.0,29.54,SE,124,2.0,2.0,94,0.00,,,0.63,Wunderground v.1.15,2013-02-26 11:22:00,
2013-02-26 06:27:00,49.7,48.0,29.53,ESE,121,3.0,3.0,94,0.00,,,0.63,Wunderground v.1.15,2013-02-26 11:27:00,
2013-02-26 06:32:00,49.8,48.1,29.51,SE,139,3.0,3.0,94,0.00,,,0.63,Wunderground v.1.15,2013-02-26 11:32:00,
2013-02-26 06:42:00,50.0,48.1,29.51,SSE,166,2.0,3.0,93,0.00,,,0.63,Wunderground v.1.15,2013-02-26 11:42:00,
2013-02-26 06:47:00,50.1,48.2,29.50,SSE,159,2.0,11.0,93,0.00,,,0.63,Wunderground v.1.15,2013-02-26 11:47:00,
2013-02-26 06:52:00,50.2,48.3,29.50,SSW,212,2.0,11.0,93,0.00,,,0.63,Wunderground v.1.15,2013-02-26 11:52:00,
2013-02-26 06:57:00,50.3,48.1,29.49,WSW,237,2.0,2.0,92,0.00,,,0.63,Wunderground v.1.15,2013-02-26 11:57:00,
2013-02-26 07:02:00,50.3,48.1,29.49,West,278,1.0,11.0,92,0.00,,,0.63,Wunderground v.1.15,2013-02-26 12:02:00,
2013-02-26 07:07:00,50.1,47.9,29.49,WNW,293,1.0,11.0,92,0.00,,,0.63,Wunderground v.1.15,2013-02-26 12:07:00,
2013-02-26 07:17:00,49.8,48.1,29.48,West,275,1.0,1.0,94,0.00,,,0.63,Wunderground v.1.15,2013-02-26 12:17:00,
2013-02-26 07:22:00,49.7,48.0,29.48,West,275,1.0,11.0,94,0.00,,,0.63,Wunderground v.1.15,2013-02-26 12:22:00,
2013-02-26 07:27:00,49.6,47.9,29.48,NW,304,1.0,11.0,94,0.00,,,0.63,Wunderground v.1.15,2013-02-26 12:27:00,
2013-02-26 07:32:00,49.6,48.2,29.48,NW,309,2.0,11.0,95,0.00,,,0.63,Wunderground v.1.15,2013-02-26 12:32:00,
2013-02-26 07:37:00,49.6,48.2,29.48,WNW,295,2.0,2.0,95,0.00,,,0.63,Wunderground v.1.15,2013-02-26 12:37:00,
2013-02-26 07:43:00,49.5,48.1,29.48,West,280,1.0,11.0,95,0.00,,,0.63,Wunderground v.1.15,2013-02-26 12:43:00,
2013-02-26 07:48:00,49.5,48.1,29.48,NW,304,1.0,11.0,95,0.00,,,0.63,Wunderground v.1.15,2013-02-26 12:48:00,
2013-02-26 07:53:00,49.4,48.0,29.48,West,263,1.0,11.0,95,0.00,,,0.63,Wunderground v.1.15,2013-02-26 12:53:00,
2013-02-26 07:58:00,49.4,48.0,29.48,WNW,285,1.0,1.0,95,0.00,,,0.63,Wunderground v.1.15,2013-02-26 12:58:00,
2013-02-26 08:03:00,49.2,47.8,29.49,NW,312,1.0,5.0,95,0.00,,,0.63,Wunderground v.1.15,2013-02-26 13:03:00,
2013-02-26 08:08:00,48.8,47.4,29.51,WNW,302,4.0,11.0,95,0.00,,,0.63,Wunderground v.1.15,2013-02-26 13:08:00,
2013-02-26 08:18:00,48.1,47.0,29.51,WNW,297,8.0,11.0,96,0.00,,,0.63,Wunderground v.1.15,2013-02-26 13:18:00,
2013-02-26 08:23:00,47.9,46.8,29.51,WNW,303,7.0,11.0,96,0.00,,,0.63,Wunderground v.1.15,2013-02-26 13:23:00,
2013-02-26 08:28:00,47.9,46.8,29.52,NW,307,5.0,11.0,96,0.00,,,0.63,Wunderground v.1.15,2013-02-26 13:28:00,
2013-02-26 08:33:00,47.9,46.8,29.51,WNW,301,4.0,11.0,96,0.00,,,0.63,Wunderground v.1.15,2013-02-26 13:33:00,
2013-02-26 08:38:00,47.9,46.5,29.51,NNW,334,4.0,4.0,95,0.00,,,0.63,Wunderground v.1.15,2013-02-26 13:38:00,
2013-02-26 08:43:00,47.9,46.5,29.52,West,269,3.0,11.0,95,0.00,,,0.63,Wunderground v.1.15,2013-02-26 13:43:00,
2013-02-26 08:53:00,48.0,46.6,29.51,SW,225,0.0,11.0,95,0.00,,,0.64,Wunderground v.1.15,2013-02-26 13:53:00,
2013-02-26 08:58:00,48.1,46.7,29.51,SW,235,0.0,11.0,95,0.00,,,0.64,Wunderground v.1.15,2013-02-26 13:58:00,
2013-02-26 09:03:00,48.1,46.7,29.51,SW,231,1.0,11.0,95,0.00,,,0.64,Wunderground v.1.15,2013-02-26 14:03:00,
2013-02-26 09:08:00,48.1,46.7,29.52,WSW,246,1.0,11.0,95,0.00,,,0.64,Wunderground v.1.15,2013-02-26 14:08:00,
2013-02-26 09:13:00,48.1,46.7,29.51,SW,229,2.0,11.0,95,0.00,,,0.64,Wunderground v.1.15,2013-02-26 14:13:00,
2013-02-26 09:23:00,48.4,47.3,29.51,West,260,3.0,11.0,96,0.00,,,0.65,Wunderground v.1.15,2013-02-26 14:23:00,
2013-02-26 09:28:00,48.6,47.5,29.51,West,266,3.0,3.0,96,0.00,,,0.65,Wunderground v.1.15,2013-02-26 14:28:00,
2013-02-26 09:33:00,48.7,47.3,29.51,WSW,245,4.0,6.0,95,0.00,,,0.65,Wunderground v.1.15,2013-02-26 14:33:00,
2013-02-26 09:38:00,48.7,47.3,29.51,West,265,6.0,11.0,95,0.00,,,0.65,Wunderground v.1.15,2013-02-26 14:38:00,
2013-02-26 09:43:00,48.7,47.1,29.51,SW,222,6.0,11.0,94,0.00,,,0.65,Wunderground v.1.15,2013-02-26 14:43:00,
2013-02-26 09:48:00,48.6,47.0,29.51,West,259,5.0,5.0,94,0.00,,,0.65,Wunderground v.1.15,2013-02-26 14:48:00,
2013-02-26 09:58:00,48.6,47.2,29.51,WNW,284,4.0,11.0,95,0.00,,,0.65,Wunderground v.1.15,2013-02-26 14:58:00,
2013-02-26 10:03:00,48.7,47.1,29.50,WNW,284,5.0,11.0,94,0.00,,,0.65,Wunderground v.1.15,2013-02-26 15:03:00,
2013-02-26 10:08:00,48.7,47.1,29.51,WSW,252,5.0,11.0,94,0.00,,,0.65,Wunderground v.1.15,2013-02-26 15:08:00,
2013-02-26 10:13:00,48.6,47.0,29.51,WSW,248,5.0,11.0,94,0.00,,,0.66,Wunderground v.1.15,2013-02-26 15:13:00,
2013-02-26 10:18:00,48.5,46.9,29.51,West,262,6.0,11.0,94,0.00,,,0.66,Wunderground v.1.15,2013-02-26 15:18:00,
2013-02-26 10:28:00,48.4,46.8,29.51,West,260,7.0,11.0,94,0.00,,,0.66,Wunderground v.1.15,2013-02-26 15:28:00,
2013-02-26 10:33:00,48.3,46.7,29.51,WSW,245,8.0,11.0,94,0.00,,,0.66,Wunderground v.1.15,2013-02-26 15:33:00,
2013-02-26 10:38:00,48.3,46.7,29.51,WSW,250,7.0,7.0,94,0.00,,,0.66,Wunderground v.1.15,2013-02-26 15:38:00,
2013-02-26 10:43:00,48.3,46.7,29.50,WSW,246,6.0,11.0,94,0.00,,,0.66,Wunderground v.1.15,2013-02-26 15:43:00,
2013-02-26 10:52:00,48.4,46.8,29.50,SW,229,5.0,11.0,94,0.00,,,0.66,Wunderground v.1.15,2013-02-26 15:52:00,
2013-02-26 10:58:00,48.7,47.3,29.49,SW,218,6.0,11.0,95,0.00,,,0.66,Wunderground v.1.15,2013-02-26 15:58:00,
2013-02-26 11:03:00,49.2,47.5,29.49,SW,225,6.0,11.0,94,0.00,,,0.66,Wunderground v.1.15,2013-02-26 16:03:00,
2013-02-26 11:08:00,49.3,47.4,29.49,SW,224,8.0,8.0,93,0.00,,,0.66,Wunderground v.1.15,2013-02-26 16:08:00,
2013-02-26 11:13:00,49.6,47.7,29.49,SW,231,9.0,9.0,93,0.00,,,0.66,Wunderground v.1.15,2013-02-26 16:13:00,
2013-02-26 11:18:00,50.0,47.8,29.49,WSW,245,8.0,8.0,92,0.00,,,0.66,Wunderground v.1.15,2013-02-26 16:18:00,
2013-02-26 11:23:00,50.4,48.5,29.50,SW,229,7.0,11.0,93,0.00,,,0.66,Wunderground v.1.15,2013-02-26 16:23:00,
2013-02-26 11:33:00,50.8,48.3,29.49,WSW,237,9.0,9.0,91,0.00,,,0.66,Wunderground v.1.15,2013-02-26 16:33:00,
2013-02-26 11:38:00,51.2,48.7,29.49,WSW,250,9.0,9.0,91,0.00,,,0.66,Wunderground v.1.15,2013-02-26 16:38:00,
2013-02-26 11:43:00,51.5,49.0,29.49,WSW,249,8.0,11.0,91,0.00,,,0.66,Wunderground v.1.15,2013-02-26 16:43:00,
2013-02-26 11:48:00,51.9,49.1,29.49,SW,231,6.0,11.0,90,0.00,,,0.66,Wunderground v.1.15,2013-02-26 16:48:00,
2013-02-26 11:53:00,52.0,48.9,29.49,WSW,242,8.0,11.0,89,0.00,,,0.66,Wunderground v.1.15,2013-02-26 16:53:00,
2013-02-26 11:58:00,52.2,49.1,29.48,SW,231,8.0,8.0,89,0.00,,,0.66,Wunderground v.1.15,2013-02-26 16:58:00,
2013-02-26 12:08:00,52.6,49.1,29.48,WSW,239,8.0,11.0,88,0.00,,,0.66,Wunderground v.1.15,2013-02-26 17:08:00,
2013-02-26 12:13:00,52.9,49.1,29.48,SW,233,9.0,15.0,87,0.00,,,0.66,Wunderground v.1.15,2013-02-26 17:13:00,
2013-02-26 12:18:00,52.9,49.4,29.48,West,273,11.0,11.0,88,0.00,,,0.66,Wunderground v.1.15,2013-02-26 17:18:00,
2013-02-26 12:23:00,52.7,49.2,29.48,SW,232,11.0,13.0,88,0.00,,,0.66,Wunderground v.1.15,2013-02-26 17:23:00,
2013-02-26 12:28:00,52.9,49.1,29.48,West,263,12.0,12.0,87,0.00,,,0.66,Wunderground v.1.15,2013-02-26 17:28:00,
2013-02-26 12:38:00,52.6,48.8,29.49,West,261,12.0,12.0,87,0.00,,,0.66,Wunderground v.1.15,2013-02-26 17:38:00,
2013-02-26 12:43:00,52.0,48.3,29.49,WSW,253,13.0,13.0,87,0.00,,,0.66,Wunderground v.1.15,2013-02-26 17:43:00,
2013-02-26 12:48:00,51.9,48.5,29.49,WSW,252,14.0,15.0,88,0.00,,,0.66,Wunderground v.1.15,2013-02-26 17:48:00,
2013-02-26 12:53:00,51.8,48.4,29.48,WSW,248,13.0,15.0,88,0.00,,,0.66,Wunderground v.1.15,2013-02-26 17:53:00,
2013-02-26 12:58:00,51.7,48.3,29.49,SW,236,13.0,16.0,88,0.00,,,0.66,Wunderground v.1.15,2013-02-26 17:58:00,
2013-02-26 13:03:00,51.5,48.1,29.49,WNW,282,12.0,16.0,88,0.00,,,0.66,Wunderground v.1.15,2013-02-26 18:03:00,
2013-02-26 13:13:00,50.4,47.3,29.49,SW,231,14.0,18.0,89,0.00,,,0.66,Wunderground v.1.15,2013-02-26 18:13:00,
2013-02-26 13:18:00,50.0,47.2,29.50,West,259,15.0,19.0,90,0.00,,,0.66,Wunderground v.1.15,2013-02-26 18:18:00,
2013-02-26 13:23:00,50.0,47.2,29.49,WSW,250,16.0,19.0,90,0.00,,,0.66,Wunderground v.1.15,2013-02-26 18:23:00,
2013-02-26 13:28:00,50.0,47.5,29.49,WSW,248,15.0,15.0,91,0.00,,,0.66,Wunderground v.1.15,2013-02-26 18:28:00,
2013-02-26 13:33:00,50.0,47.2,29.50,WSW,248,14.0,15.0,90,0.00,,,0.66,Wunderground v.1.15,2013-02-26 18:33:00,
2013-02-26 13:43:00,49.8,46.7,29.50,WSW,252,16.0,19.0,89,0.00,,,0.66,Wunderground v.1.15,2013-02-26 18:43:00,
2013-02-26 13:48:00,49.8,47.0,29.50,WSW,239,17.0,17.0,90,0.00,,,0.66,Wunderground v.1.15,2013-02-26 18:48:00,
2013-02-26 13:53:00,49.8,46.7,29.50,WSW,242,17.0,18.0,89,0.00,,,0.66,Wunderground v.1.15,2013-02-26 18:53:00,
2013-02-26 13:58:00,49.8,46.4,29.50,West,278,18.0,18.0,88,0.00,,,0.66,Wunderground v.1.15,2013-02-26 18:58:00,
2013-02-26 14:03:00,49.8,46.4,29.50,SW,229,18.0,18.0,88,0.00,,,0.66,Wunderground v.1.15,2013-02-26 19:03:00,
2013-02-26 14:08:00,49.7,46.0,29.50,WSW,256,18.0,18.0,87,0.00,,,0.66,Wunderground v.1.15,2013-02-26 19:08:00,
2013-02-26 14:18:00,49.6,45.6,29.50,WSW,258,18.0,23.0,86,0.00,,,0.66,Wunderground v.1.15,2013-02-26 19:18:00,
2013-02-26 14:23:00,49.6,45.9,29.51,WSW,250,20.0,23.0,87,0.00,,,0.66,Wunderground v.1.15,2013-02-26 19:23:00,
2013-02-26 14:28:00,49.4,46.0,29.51,West,260,19.0,19.0,88,0.00,,,0.66,Wunderground v.1.15,2013-02-26 19:28:00,
2013-02-26 14:33:00,49.3,45.9,29.51,WSW,257,17.0,19.0,88,0.00,,,0.66,Wunderground v.1.15,2013-02-26 19:33:00,
2013-02-26 14:38:00,49.1,45.7,29.50,WSW,245,18.0,18.0,88,0.00,,,0.66,Wunderground v.1.15,2013-02-26 19:38:00,
2013-02-26 14:48:00,48.7,46.2,29.51,WSW,248,14.0,16.0,91,0.00,,,0.66,Wunderground v.1.15,2013-02-26 19:48:00,
2013-02-26 14:53:00,48.6,46.4,29.51,WSW,250,13.0,16.0,92,0.00,,,0.66,Wunderground v.1.15,2013-02-26 19:53:00,
2013-02-26 14:58:00,48.3,45.8,29.51,WSW,252,14.0,14.0,91,0.00,,,0.66,Wunderground v.1.15,2013-02-26 19:58:00,
2013-02-26 15:03:00,48.0,45.8,29.52,West,259,13.0,14.0,92,0.00,,,0.66,Wunderground v.1.15,2013-02-26 20:03:00,
2013-02-26 15:08:00,47.8,45.9,29.52,SW,225,13.0,13.0,93,0.00,,,0.66,Wunderground v.1.15,2013-02-26 20:08:00,
2013-02-26 15:13:00,47.6,45.7,29.52,WSW,248,12.0,13.0,93,0.00,,,0.66,Wunderground v.1.15,2013-02-26 20:13:00,
2013-02-26 15:23:00,47.3,45.7,29.52,SW,236,9.0,14.0,94,0.00,,,0.66,Wunderground v.1.15,2013-02-26 20:23:00,
2013-02-26 15:28:00,47.4,45.8,29.52,West,276,10.0,11.0,94,0.00,,,0.66,Wunderground v.1.15,2013-02-26 20:28:00,
2013-02-26 15:33:00,47.5,45.9,29.53,West,260,10.0,11.0,94,0.00,,,0.66,Wunderground v.1.15,2013-02-26 20:33:00,
2013-02-26 15:38:00,47.5,45.6,29.53,West,274,9.0,9.0,93,0.00,,,0.66,Wunderground v.1.15,2013-02-26 20:38:00,
2013-02-26 15:43:00,47.4,45.5,29.53,West,270,10.0,10.0,93,0.00,,,0.66,Wunderground v.1.15,2013-02-26 20:43:00,
2013-02-26 15:53:00,47.3,45.1,29.54,West,270,9.0,12.0,92,0.00,,,0.66,Wunderground v.1.15,2013-02-26 20:53:00,
2013-02-26 16:02:00,47.4,45.2,29.54,WSW,249,8.0,11.0,92,0.00,,,0.66,Wunderground v.1.15,2013-02-26 21:02:00,
2013-02-26 16:07:00,47.4,44.9,29.54,SW,236,8.0,14.0,91,0.00,,,0.66,Wunderground v.1.15,2013-02-26 21:07:00,
2013-02-26 16:13:00,47.5,44.7,29.54,SW,235,10.0,14.0,90,0.00,,,0.66,Wunderground v.1.15,2013-02-26 21:13:00,
2013-02-26 16:18:00,47.7,44.9,29.54,West,260,11.0,11.0,90,0.00,,,0.66,Wunderground v.1.15,2013-02-26 21:18:00,
2013-02-26 16:28:00,48.1,44.4,29.54,West,269,11.0,11.0,87,0.00,,,0.66,Wunderground v.1.15,2013-02-26 21:28:00,
2013-02-26 16:33:00,48.4,44.7,29.55,WSW,256,10.0,11.0,87,0.00,,,0.66,Wunderground v.1.15,2013-02-26 21:33:00,
2013-02-26 16:38:00,48.5,44.8,29.55,West,260,9.0,14.0,87,0.00,,,0.66,Wunderground v.1.15,2013-02-26 21:38:00,
2013-02-26 16:43:00,48.6,44.6,29.55,WSW,249,10.0,14.0,86,0.00,,,0.66,Wunderground v.1.15,2013-02-26 21:43:00,
2013-02-26 16:48:00,48.6,44.6,29.56,WSW,240,10.0,13.0,86,0.00,,,0.66,Wunderground v.1.15,2013-02-26 21:48:00,
2013-02-26 16:53:00,48.7,44.7,29.56,WSW,252,9.0,13.0,86,0.00,,,0.66,Wunderground v.1.15,2013-02-26 21:53:00,
2013-02-26 17:03:00,48.8,44.2,29.56,West,261,9.0,11.0,84,0.00,,,0.66,Wunderground v.1.15,2013-02-26 22:03:00,
2013-02-26 17:12:00,48.9,43.3,29.57,West,280,10.0,10.0,81,0.00,,,0.66,Wunderground v.1.15,2013-02-26 22:12:00,
2013-02-26 17:17:00,49.0,42.1,29.57,WSW,252,12.0,14.0,77,0.00,,,0.66,Wunderground v.1.15,2013-02-26 22:17:00,
2013-02-26 17:22:00,49.1,41.9,29.58,West,260,13.0,14.0,76,0.00,,,0.66,Wunderground v.1.15,2013-02-26 22:22:00,
2013-02-26 17:27:00,49.1,41.2,29.58,West,265,14.0,14.0,74,0.00,,,0.66,Wunderground v.1.15,2013-02-26 22:27:00,
2013-02-26 17:33:00,49.0,41.1,29.58,West,267,13.0,14.0,74,0.00,,,0.66,Wunderground v.1.15,2013-02-26 22:33:00,
2013-02-26 17:38:00,48.9,40.6,29.58,WSW,241,12.0,14.0,73,0.00,,,0.66,Wunderground v.1.15,2013-02-26 22:38:00,
2013-02-26 17:43:00,48.8,40.2,29.59,WSW,239,13.0,14.0,72,0.00,,,0.66,Wunderground v.1.15,2013-02-26 22:43:00,
2013-02-26 17:48:00,48.7,40.4,29.59,WSW,245,13.0,13.0,73,0.00,,,0.66,Wunderground v.1.15,2013-02-26 22:48:00,
2013-02-26 17:53:00,48.6,39.6,29.59,West,263,11.0,13.0,71,0.00,,,0.66,Wunderground v.1.15,2013-02-26 22:53:00,
2013-02-26 17:58:00,48.6,38.9,29.59,West,260,14.0,17.0,69,0.00,,,0.66,Wunderground v.1.15,2013-02-26 22:58:00,
2013-02-26 18:08:00,48.3,37.8,29.60,WNW,285,15.0,15.0,67,0.00,,,0.66,Wunderground v.1.15,2013-02-26 23:08:00,
2013-02-26 18:13:00,48.2,38.1,29.60,WSW,248,14.0,15.0,68,0.00,,,0.66,Wunderground v.1.15,2013-02-26 23:13:00,
2013-02-26 18:18:00,48.1,38.0,29.60,West,263,13.0,14.0,68,0.00,,,0.66,Wunderground v.1.15,2013-02-26 23:18:00,
2013-02-26 18:23:00,48.0,37.9,29.61,West,270,11.0,14.0,68,0.00,,,0.66,Wunderground v.1.15,2013-02-26 23:23:00,
2013-02-26 18:28:00,48.0,37.6,29.61,WSW,255,11.0,11.0,67,0.00,,,0.66,Wunderground v.1.15,2013-02-26 23:28:00,
2013-02-26 18:38:00,47.8,38.1,29.61,West,263,11.0,12.0,69,0.00,,,0.66,Wunderground v.1.15,2013-02-26 23:38:00,
2013-02-26 18:43:00,47.7,37.7,29.62,West,278,12.0,12.0,68,0.00,,,0.66,Wunderground v.1.15,2013-02-26 23:43:00,
2013-02-26 18:48:00,47.7,37.7,29.62,West,260,12.0,13.0,68,0.00,,,0.66,Wunderground v.1.15,2013-02-26 23:48:00,
2013-02-26 18:53:00,47.6,37.2,29.62,WSW,248,12.0,18.0,67,0.00,,,0.66,Wunderground v.1.15,2013-02-26 23:53:00,
2013-02-26 18:58:00,47.6,37.2,29.63,WSW,241,14.0,15.0,67,0.00,,,0.66,Wunderground v.1.15,2013-02-26 23:58:00,
2013-02-26 19:03:00,47.5,37.5,29.63,WSW,257,14.0,15.0,68,0.00,,,0.66,Wunderground v.1.15,2013-02-27 00:03:00,
2013-02-26 19:12:00,47.3,37.6,29.64,WSW,253,12.0,18.0,69,0.00,,,0.66,Wunderground v.1.15,2013-02-27 00:12:00,
2013-02-26 19:17:00,47.2,37.2,29.64,SW,232,12.0,12.0,68,0.00,,,0.66,Wunderground v.1.15,2013-02-27 00:17:00,
2013-02-26 19:22:00,47.1,37.4,29.64,West,273,11.0,12.0,69,0.00,,,0.66,Wunderground v.1.15,2013-02-27 00:22:00,
2013-02-26 19:27:00,47.1,37.4,29.65,West,261,10.0,11.0,69,0.00,,,0.66,Wunderground v.1.15,2013-02-27 00:27:00,
2013-02-26 19:32:00,47.0,37.7,29.64,West,278,9.0,11.0,70,0.00,,,0.66,Wunderground v.1.15,2013-02-27 00:32:00,
2013-02-26 19:42:00,46.8,37.5,29.65,WNW,297,11.0,11.0,70,0.00,,,0.66,Wunderground v.1.15,2013-02-27 00:42:00,
2013-02-26 19:47:00,46.8,37.9,29.65,WSW,257,12.0,12.0,71,0.00,,,0.66,Wunderground v.1.15,2013-02-27 00:47:00,
2013-02-26 19:52:00,46.7,38.1,29.65,WSW,248,11.0,12.0,72,0.00,,,0.66,Wunderground v.1.15,2013-02-27 00:52:00,
2013-02-26 19:57:00,46.6,38.1,29.65,WSW,250,10.0,11.0,72,0.00,,,0.66,Wunderground v.1.15,2013-02-27 00:57:00,
2013-02-26 20:02:00,46.6,37.7,29.65,WSW,252,10.0,11.0,71,0.00,,,0.66,Wunderground v.1.15,2013-02-27 01:02:00,
2013-02-26 20:07:00,46.5,38.3,29.66,WSW,253,9.0,9.0,73,0.00,,,0.66,Wunderground v.1.15,2013-02-27 01:07:00,
2013-02-26 20:17:00,46.3,38.5,29.66,West,260,9.0,9.0,74,0.00,,,0.66,Wunderground v.1.15,2013-02-27 01:17:00,
2013-02-26 20:22:00,46.3,38.1,29.66,WSW,246,9.0,11.0,73,0.00,,,0.66,Wunderground v.1.15,2013-02-27 01:22:00,
2013-02-26 20:27:00,46.4,38.2,29.67,WSW,249,12.0,12.0,73,0.00,,,0.66,Wunderground v.1.15,2013-02-27 01:27:00,
2013-02-26 20:32:00,46.2,38.4,29.67,WNW,291,15.0,16.0,74,0.00,,,0.66,Wunderground v.1.15,2013-02-27 01:32:00,
2013-02-26 20:37:00,45.9,38.4,29.68,West,260,14.0,14.0,75,0.00,,,0.66,Wunderground v.1.15,2013-02-27 01:37:00,
2013-02-26 20:43:00,45.2,38.7,29.68,WSW,255,13.0,14.0,78,0.00,,,0.66,Wunderground v.1.15,2013-02-27 01:43:00,
2013-02-26 20:48:00,44.8,39.0,29.68,West,266,13.0,13.0,80,0.00,,,0.66,Wunderground v.1.15,2013-02-27 01:48:00,
2013-02-26 20:53:00,44.6,38.8,29.69,WSW,239,11.0,13.0,80,0.00,,,0.66,Wunderground v.1.15,2013-02-27 01:53:00,
2013-02-26 20:58:00,44.5,39.0,29.69,WSW,240,10.0,10.0,81,0.00,,,0.66,Wunderground v.1.15,2013-02-27 01:58:00,
2013-02-26 21:03:00,44.5,39.0,29.69,WSW,250,9.0,12.0,81,0.00,,,0.66,Wunderground v.1.15,2013-02-27 02:03:00,
2013-02-26 21:08:00,44.5,38.7,29.69,WSW,249,10.0,12.0,80,0.00,,,0.66,Wunderground v.1.15,2013-02-27 02:08:00,
2013-02-26 21:18:00,44.7,38.3,29.69,West,269,11.0,11.0,78,0.00,,,0.66,Wunderground v.1.15,2013-02-27 02:18:00,
2013-02-26 21:23:00,44.8,38.4,29.70,WSW,253,10.0,14.0,78,0.00,,,0.66,Wunderground v.1.15,2013-02-27 02:23:00,
2013-02-26 21:28:00,44.8,38.0,29.70,West,264,10.0,10.0,77,0.00,,,0.66,Wunderground v.1.15,2013-02-27 02:28:00,
2013-02-26 21:37:00,44.7,38.6,29.70,WSW,253,9.0,9.0,79,0.00,,,0.66,Wunderground v.1.15,2013-02-27 02:37:00,
2013-02-26 21:42:00,44.6,38.5,29.70,WSW,250,9.0,11.0,79,0.00,,,0.66,Wunderground v.1.15,2013-02-27 02:42:00,
2013-02-26 21:47:00,44.5,38.4,29.70,WSW,250,10.0,10.0,79,0.00,,,0.66,Wunderground v.1.15,2013-02-27 02:47:00,
2013-02-26 21:57:00,44.4,38.6,29.71,West,259,8.0,11.0,80,0.00,,,0.66,Wunderground v.1.15,2013-02-27 02:57:00,
2013-02-26 22:02:00,44.4,38.9,29.71,WSW,252,9.0,12.0,81,0.00,,,0.66,Wunderground v.1.15,2013-02-27 03:02:00,
2013-02-26 22:07:00,44.3,38.8,29.71,West,270,10.0,10.0,81,0.00,,,0.66,Wunderground v.1.15,2013-02-27 03:07:00,
2013-02-26 22:12:00,44.2,39.1,29.71,WSW,245,10.0,11.0,82,0.00,,,0.66,Wunderground v.1.15,2013-02-27 03:12:00,
2013-02-26 22:17:00,44.1,38.6,29.71,WSW,253,9.0,9.0,81,0.00,,,0.66,Wunderground v.1.15,2013-02-27 03:17:00,
2013-02-26 22:23:00,43.9,38.8,29.71,SW,226,9.0,11.0,82,0.00,,,0.66,Wunderground v.1.15,2013-02-27 03:23:00,
2013-02-26 22:28:00,43.9,39.1,29.72,WSW,240,8.0,15.0,83,0.00,,,0.66,Wunderground v.1.15,2013-02-27 03:28:00,
2013-02-26 22:37:00,42.9,39.0,29.73,West,280,12.0,12.0,86,0.00,,,0.67,Wunderground v.1.15,2013-02-27 03:37:00,
2013-02-26 22:42:00,42.4,38.8,29.73,North,353,11.0,12.0,87,0.07,,,0.68,Wunderground v.1.15,2013-02-27 03:42:00,
2013-02-26 22:47:00,42.1,39.1,29.73,West,269,10.0,10.0,89,0.07,,,0.68,Wunderground v.1.15,2013-02-27 03:47:00,
2013-02-26 22:52:00,41.9,39.2,29.73,West,269,8.0,11.0,90,0.05,,,0.68,Wunderground v.1.15,2013-02-27 03:52:00,
2013-02-26 22:58:00,41.8,39.1,29.73,West,269,6.0,11.0,90,0.00,,,0.68,Wunderground v.1.15,2013-02-27 03:58:00,
2013-02-26 23:03:00,41.7,38.7,29.73,West,263,7.0,11.0,89,0.00,,,0.68,Wunderground v.1.15,2013-02-27 04:03:00,
2013-02-26 23:08:00,41.7,38.7,29.73,West,260,7.0,11.0,89,0.00,,,0.68,Wunderground v.1.15,2013-02-27 04:08:00,
2013-02-26 23:13:00,41.7,39.0,29.74,WSW,252,7.0,11.0,90,0.00,,,0.68,Wunderground v.1.15,2013-02-27 04:13:00,
2013-02-26 23:18:00,41.6,38.9,29.74,West,264,7.0,7.0,90,0.00,,,0.68,Wunderground v.1.15,2013-02-27 04:18:00,
2013-02-26 23:23:00,41.5,38.5,29.73,WSW,250,7.0,11.0,89,0.00,,,0.68,Wunderground v.1.15,2013-02-27 04:23:00,
2013-02-26 23:33:00,41.4,38.4,29.74,WSW,257,7.0,11.0,89,0.00,,,0.68,Wunderground v.1.15,2013-02-27 04:33:00,
2013-02-26 23:38:00,41.4,38.4,29.74,West,263,6.0,6.0,89,0.00,,,0.68,Wunderground v.1.15,2013-02-27 04:38:00,
2013-02-26 23:43:00,41.3,38.3,29.74,West,268,6.0,11.0,89,0.00,,,0.68,Wunderground v.1.15,2013-02-27 04:43:00,
2013-02-26 23:48:00,41.4,38.4,29.73,WSW,255,6.0,11.0,89,0.00,,,0.68,Wunderground v.1.15,2013-02-27 04:48:00,
2013-02-26 23:53:00,41.5,38.2,29.73,WSW,248,8.0,11.0,88,0.00,,,0.68,Wunderground v.1.15,2013-02-27 04:53:00,